Regional Weather Roundup
Issued by NWS

Home | Current Version | Previous Version | Text Only | Print | Product List | Glossary On
Versions: 1 2 3 4 5 6 7 8 9 10 11 12 13 14 15 16 17 18 19 20 21 22 23 24 25 26 27 28 29 30 31 32 33 34 35 36 37 38 39 40 41 42 43 44 45 46 47 48 49 50
000
ASUS44 KLIX 020411
RWRLA
LOUISIANA WEATHER ROUNDUP
NATIONAL WEATHER SERVICE NEW ORLEANS LA
1100 PM CDT TUE SEP 01 2015

NOTE: "FAIR" INDICATES FEW OR NO CLOUDS BELOW 12,000 FEET WITH NO
      SIGNIFICANT WEATHER AND/OR OBSTRUCTIONS TO VISIBILITY.
      SKY/WX - SKY CONDITION AND SIGNIFICANT WEATHER.
      TMP - AIR TEMPERATURE.    DP   - DEWPOINT TEMPERATURE.
      RH  - RELATIVE HUMIDITY.  PRES - PRESSURE.
      HX  - HEAT INDEX.         WCI  - WIND CHILL INDEX.

*  THESE STATIONS ARE NOT NWS OR FAA STATIONS AND ARE NOT UNDER
   NWS QUALITY CONTROL.

LAZ040-048-061>063-065-066-069-020500-
SOUTHEAST LOUISIANA

CITY           SKY/WX    TMP DP  RH WIND       PRES   REMARKS
N.O. AUDUBON   NOT AVBL
N.O. INTL ARPT CLOUDY    81  73  76 S3        30.06R
N.O. LAKEFRONT CLOUDY    81  73  76 S6        30.07R
N.O. DOWNTOWN* FAIR      84  73  70 SE6       30.07R
RESERVE*       FAIR      78  74  88 CALM      30.07R
SLIDELL        CLOUDY    75  74  96 CALM      30.06R
BATON ROUGE    CLOUDY    79  73  82 W3        30.06R
BOOTHVILLE     MOCLDY    81  76  84 CALM      30.06S
BELLE CHASSE   CLOUDY    77  74  90 CALM      30.06R
BOGALUSA*      NOT AVBL
GALLIANO*      CLOUDY    79  74  86 CALM      30.07R
NEW ROADS*     FAIR      77  71  82 S3        30.07R
GONZALES*      FAIR      75  75 100 CALM      30.06R
HAMMOND*       CLOUDY    79  72  78 CALM      30.08R
HOUMA*         CLOUDY    76  75  96 CALM      30.07R
PORT FOURCHON* CLEAR     86  72  62 SE8       30.07S

$$

LAZ041-044-053-054-020500-
SOUTHWEST LOUISIANA

CITY           SKY/WX    TMP DP  RH WIND       PRES   REMARKS
LAKE CHARLES   CLOUDY    76  74  93 NE5       30.03S
LAFAYETTE      CLOUDY    76  74  93 CALM      30.06R
PATTERSON      CLOUDY    77  73  88 CALM      30.07S
SALT POINT       N/A     80  76  87 CALM      30.05R
NEW IBERIA     CLOUDY    78  75  90 CALM      30.06R
CHENAULT AIRPK DRIZZLE   75  73  93 CALM      30.05R

$$

LAZ027-028-020500-
CENTRAL LOUISIANA

CITY           SKY/WX    TMP DP  RH WIND       PRES   REMARKS
FORT POLK      CLOUDY    72  70  94 E2        30.05R
ALEXANDRIA INT CLOUDY    74  71  91 CALM      30.04R
ALEXANDRIA     CLOUDY    77  71  82 CALM      30.05S

$$

LAZ001-002-020500-
NORTHWEST LOUISIANA

CITY           SKY/WX    TMP DP  RH WIND       PRES   REMARKS
SHREVEPORT     CLOUDY    78  68  71 CALM      30.05R
BARKSDALE AFB  PTCLDY    75  68  78 CALM      30.05R
DTN SHREVEPORT PTCLDY    75  68  78 CALM      30.06R

$$

LAZ014-016-020500-
NORTHEAST LOUISIANA

CITY           SKY/WX    TMP DP  RH WIND       PRES   REMARKS
MONROE         MOCLDY    74  67  78 CALM      30.06S
TALLULAH       CLOUDY    78  69  73 E6        30.05F

$$



USA.gov is the U.S. government's official web portal to all federal, state and local government web resources and services.